{"data":{"norad_id":64484,"intl_designator":"2025-133N","name":"STARLINK-34509","alt_names":[],"object_type":"PAYLOAD","status":"ACTIVE","operator":null,"country":"US","launch_date":"2025-06-23","launch_site_code":"AFETR","launch_vehicle":null,"mission":null,"orbit_class":"UNKNOWN","rcs_meters":null,"size_class":null,"mass_kg":null,"dimensions":null,"purposes":["comms"],"wikipedia_slug":null,"has_3d_model":false,"image_url":null,"decayed_at":null,"tle_current":{"epoch":"2026-05-25T02:26:40.812000Z","epoch_age_seconds":76318,"freshness":"FRESH","line1":"1 64484U 25133N   26145.10186125  .00015760  00000+0  54301-3 0  9996","line2":"2 64484  53.1566 122.1394 0001170 100.4179 259.6953 15.30204144 52883","mean_motion":15.30204144,"eccentricity":0.000117,"inclination_deg":53.1566,"raan_deg":122.1394,"arg_perigee_deg":100.4179,"mean_anomaly_deg":259.6953,"bstar":0.00054301,"rev_number":5288,"period_min":94.105090856426,"perigee_km":474.40085546575,"apogee_km":476.00453695467,"semimajor_km":6853.3396962102,"source":"CELESTRAK","updated_at":"2026-05-25T13:38:20.459261Z"}}}